This demonstration page uses our WeatherBlox Daily Observations layout. Learn more.

Left ArrowRight Arrow

39.01783, -85.05884

Hourly Observations for June 14, 2015

Temp ( °F °C ) Dew Point ( °F °C ) Humidity (%) Winds ( mph kmh ) Pressure ( in mb ) Visibility ( mi km ) Precip ( " mm )
12:52 am 00:52 Mostly Cloudy 78 25.6 69 20.6 74 74 SSW 7 11 30.03 1017 10 16 N/A
2:52 am 02:52 Mostly Cloudy 76 24.4 69 20.6 79 79 SSW 5 7 30.01 1016 10 16 N/A
3:52 am 03:52 Cloudy 75 23.9 69 20.6 82 82 S 3 6 30.00 1016 10 16 N/A
4:52 am 04:52 Cloudy 75 23.9 69 20.6 82 82 SSW 6 9 30.01 1016 10 16 N/A
5:52 am 05:52 Mostly Cloudy 74 23.3 68 20 82 82 SSW 7 11 30.02 1017 10 16 N/A
6:52 am 06:52 Mostly Cloudy 74 23.3 69 20.6 85 85 SSW 7 11 30.03 1017 9 14 N/A
7:52 am 07:52 Mostly Cloudy 77 25 70 21.1 79 79 SW 9 15 30.04 1017 10 16 N/A
8:52 am 08:52 Cloudy 77 25 70 21.1 79 79 SSW 8 13 30.05 1018 10 16 N/A
9:52 am 09:52 Mostly Cloudy 81 27.2 71 21.7 72 72 SW 8 13 30.05 1018 10 16 N/A
10:52 am 10:52 Partly Cloudy 83 28.3 69 20.6 63 63 SW 12 19 30.04 1017 10 16 N/A
11:52 am 11:52 Mostly Cloudy 85 29.4 69 20.6 59 59 SW 10 17 30.05 1018 10 16 N/A
12:52 pm 12:52 Mostly Cloudy 88 31.1 70 21.1 55 55 WSW 9 15 30.04 1017 10 16 N/A
1:52 pm 13:52 Mostly Cloudy 88 31.1 69 20.6 54 54 S 13 20 30.03 1017 10 16 N/A
2:52 pm 14:52 Mostly Cloudy 90 32.2 69 20.6 50 50 SSW 14 22 30.01 1016 10 16 N/A
3:52 pm 15:52 Mostly Cloudy 89 31.7 68 20 50 50 SSW 12 19 29.99 1016 10 16 N/A
4:52 pm 16:52 Mostly Cloudy 87 30.6 69 20.6 55 55 SW 10 17 29.98 1015 10 16 N/A
5:52 pm 17:52 Mostly Cloudy 86 30 68 20 55 55 SW 12 19 29.98 1015 10 16 N/A
6:52 pm 18:52 Mostly Cloudy 88 31 70 21 55 55 SW 14 22 29.94 1014 10 16 N/A
7:52 pm 19:52 Partly Cloudy 86 30 69 20.6 57 57 SW 8 13 29.96 1015 10 16 N/A
8:52 pm 20:52 Mostly Cloudy 83 28.3 69 20.6 63 63 SW 7 11 29.97 1015 10 16 N/A
9:52 pm 21:52 Partly Cloudy 81 27.2 69 20.6 67 67 SW 7 11 29.98 1015 10 16 N/A
10:52 pm 22:52 Partly Cloudy 80 26.7 69 20.6 69 69 SW 6 9 30.00 1016 10 16 N/A
11:52 pm 23:52 Partly Cloudy 78 25.6 69 20.6 74 74 SSW 5 7 30.02 1017 10 16 N/A

Powered by AerisWeather